Dewpoint
57 57 57 56 56 56 57 56 55 56 57 56 57 57 59 60 60 54 50 53 54 58 55 47 48 47 45 44 45 48 37 31 24 24 28 38 35 33 36 39 41 48 50 51 53
56 56 57 57 56 56 56 56 55 55 56 56 56 57 58 59 55 52 54 56 58 59 54 44 44 44 42 41 42 40 36 32 30 25 31 37 36 34 34 37 40 47 50 50 51
55 55 56 56 55 55 55 56 55 55 56 57 57 57 59 56 46 45 52 57 56 59 55 48 46 43 41 40 39 39 34 36 37 42 40 37 34 33 34 36 37 41 48 49 50
55 54 55 54 54 55 55 55 55 55 55 57 57 57 58 49 33 40 54 55 57 53 48 45 44 41 38 37 37 35 35 34 38 37 38 35 34 31 35 35 33 40 50 49 48
56 54 54 54 54 56 55 57 57 57 56 56 57 57 52 46 44 47 57 58 55 51 46 45 40 39 35 36 34 32 33 32 34 36 35 34 32 31 31 30 44 49 49 48 48
56 55 54 54 54 56 56 55 55 55 56 55 55 54 46 39 43 46 54 54 53 50 46 44 41 39 35 34 33 33 30 29 32 32 31 31 29 30 30 40 48 49 48 48 48
56 55 55 54 54 54 55 54 54 54 54 54 53 45 44 41 39 42 44 51 52 47 44 45 44 35 35 32 31 28 28 29 29 30 31 30 32 27 27 40 46 48 48 48 48
55 55 55 54 54 54 52 53 53 54 53 53 50 45 42 46 43 37 38 38 43 47 47 45 46 41 32 31 27 27 27 28 29 31 32 33 34 28 25 36 43 48 48 49 48
55 55 55 54 54 53 53 54 53 53 52 53 46 42 38 44 39 38 38 36 38 42 45 42 38 34 31 27 26 25 23 23 27 29 29 30 30 25 24 26 35 42 40 41 42
54 55 55 54 54 53 51 52 51 50 51 50 49 40 36 35 37 36 36 37 37 39 37 35 31 28 26 28 20 21 22 22 20 27 28 26 25 25 24 23 25 24 23 23 26
54 54 54 54 54 53 47 43 38 38 41 38 37 36 36 38 39 36 37 36 33 30 29 32 29 26 23 26 24 20 19 21 24 28 28 26 26 26 27 22 21 20 20 23 25
54 54 54 52 53 53 45 41 40 39 35 39 39 38 38 39 35 37 37 32 30 29 31 27 27 26 26 23 21 19 16 19 25 24 24 21 20 21 21 24 22 20 19 21 26
54 54 52 52 53 46 41 41 44 40 34 34 37 37 36 37 34 34 34 32 28 27 28 25 28 30 25 23 21 21 16 16 19 23 21 17 16 16 25 24 29 25 22 21 26
53 53 52 52 42 42 40 44 45 39 27 24 30 32 36 36 31 35 36 32 30 27 29 28 31 25 25 24 22 19 25 21 20 20 17 17 7 13 17 22 29 29 25 24 27
53 51 51 48 41 38 42 45 42 32 12 23 29 35 34 30 30 30 36 33 28 30 27 27 29 25 24 26 27 20 27 23 20 19 18 15 22 14 16 16 23 27 29 27 32
52 51 51 45 42 41 44 41 37 22 10 22 28 29 27 28 29 31 31 32 34 28 27 29 33 32 29 30 28 31 23 23 22 21 20 17 21 17 13 19 25 28 30 30 35
52 50 46 43 37 45 43 35 25 16 21 22 25 28 25 25 25 26 27 24 24 22 23 23 25 31 31 26 28 23 23 21 18 19 18 23 21 18 17 24 30 30 29 31 36
50 48 44 43 45 43 36 24 16 19 22 28 28 24 20 22 23 23 22 20 24 22 22 21 19 28 32 28 24 22 19 20 9 11 12 19 17 24 23 25 30 32 32 33 34
48 43 38 39 45 39 29 23 18 21 29 29 23 16 18 21 21 22 20 19 21 23 16 17 21 30 32 30 26 21 19 18 16 14 10 15 14 11 21 23 30 33 33 34 35
40 39 40 41 41 34 28 26 26 30 30 29 19 18 13 17 18 18 20 24 23 22 22 18 20 27 30 30 26 19 19 16 19 6 5 8 9 21 21 22 29 32 33 34 34
39 31 39 41 35 30 25 25 28 29 28 26 23 19 16 15 17 19 19 24 27 24 20 21 19 24 28 25 23 19 17 15 13 8 1 -4 14 21 23 26 26 32 33 30 29
36 30 42 37 24 27 25 28 32 26 25 26 24 22 18 17 17 20 20 24 30 28 15 16 20 21 21 24 25 22 18 14 14 6 8 4 11 17 23 28 31 29 27 29 31
35 35 39 29 19 20 26 24 24 22 20 22 19 22 18 16 15 23 25 31 30 26 18 16 11 11 8 13 19 23 23 16 14 17 11 7 7 22 25 27 28 27 29 31 32
29 26 31 33 28 22 19 19 16 25 22 23 18 18 16 13 18 20 22 29 30 27 30 21 10 6 9 8 17 19 22 17 16 17 9 8 6 8 23 25 25 28 30 31 31
33 30 31 24 27 26 25 21 21 21 21 21 14 15 12 6 8 15 22 22 26 29 24 13 5 10 11 12 18 15 12 21 16 15 11 9 8 9 11 24 25 29 29 29 30
26 27 33 30 31 29 30 27 26 25 24 22 21 18 16 10 6 4 17 16 14 24 22 18 8 17 9 25 15 13 13 15 21 20 16 16 16 12 22 26 27 29 29 28 29
37 37 31 30 29 25 25 27 26 28 27 27 25 26 27 23 22 27 18 18 20 18 18 14 17 19 16 24 24 19 23 19 15 20 19 16 16 21 24 26 28 28 28 28 29
Lifted_Index
4 4 3 2 2 2 2 1 1 0 -0 -1 -1 -1 -0 -0 1 2 3 3 3 3 5 7 8 8 7 6 5 3 1 0 0 0 1 -0 -1 -0 1 1 2 3 4 3 1
5 4 3 2 2 2 2 1 1 1 -0 -1 -1 -1 -0 0 2 3 3 3 3 3 4 6 7 7 7 6 5 3 1 0 -0 0 1 0 -0 0 1 2 2 3 4 2 1
5 4 3 3 3 3 2 2 1 1 0 -0 -1 -0 0 1 3 3 3 2 2 2 4 6 7 7 7 6 6 5 2 1 0 0 1 1 1 1 1 2 3 3 4 3 1
4 4 4 3 3 2 2 2 1 1 0 -0 -0 0 1 2 3 3 2 1 1 2 4 6 6 7 7 6 6 6 4 3 2 1 2 2 1 1 1 2 2 3 4 3 2
4 4 3 3 2 2 1 1 1 1 1 0 0 1 2 3 3 3 1 -0 0 1 3 5 6 6 6 6 6 6 6 4 3 3 2 2 2 1 1 1 2 3 3 3 2
3 3 3 3 2 1 1 2 2 2 1 1 1 1 2 3 3 3 1 -0 -1 0 3 4 5 6 6 6 6 6 6 5 4 4 3 2 2 2 1 2 2 3 3 3 2
3 3 3 3 2 2 2 2 3 2 1 1 1 1 2 2 3 4 2 0 -1 0 2 4 5 5 6 6 6 6 6 5 5 4 3 2 2 2 2 2 3 4 4 3 3
4 3 3 3 3 3 3 3 3 2 1 1 1 1 2 2 3 4 3 1 -0 0 2 3 4 4 5 6 6 6 5 4 5 5 4 3 2 2 3 3 4 4 4 4 4
4 4 4 3 3 3 3 3 3 2 2 2 2 2 2 2 3 3 3 2 1 1 2 2 3 4 5 5 5 5 4 4 4 5 5 3 3 3 4 4 4 4 4 4 4
5 4 4 4 3 3 4 4 3 2 2 2 2 2 2 2 3 3 3 3 2 2 2 2 2 3 5 5 5 4 4 4 4 5 5 4 3 4 5 5 5 5 5 5 5
5 5 4 4 4 4 4 4 3 2 2 2 2 2 2 2 3 3 3 3 2 2 1 1 2 3 4 5 5 5 4 4 4 5 5 4 4 4 5 5 5 6 6 6 6
5 5 5 5 4 4 4 4 3 3 2 2 2 2 2 2 3 3 2 2 2 1 1 1 2 3 4 4 5 5 5 4 4 5 4 4 4 4 4 5 5 6 6 6 7
6 6 6 6 5 5 4 4 4 3 2 2 2 2 2 2 2 2 2 2 2 1 0 1 2 3 3 4 5 5 5 4 4 4 4 4 3 3 4 4 5 6 6 7 7
6 6 7 6 6 5 5 4 4 4 2 2 2 2 2 2 2 2 2 2 1 1 1 1 2 3 3 4 5 5 5 5 4 4 4 3 3 3 3 4 4 5 6 7 7
7 7 7 7 6 6 6 5 5 4 2 2 2 2 2 2 2 2 2 1 1 1 1 2 2 3 3 4 5 5 5 5 5 4 3 3 3 3 3 3 4 5 5 7 7
8 8 8 8 7 7 6 6 5 3 2 2 2 2 2 2 2 2 1 1 1 1 2 2 2 3 4 4 5 5 5 4 4 3 3 3 3 3 3 3 4 4 5 7 7
9 9 8 8 8 7 7 6 3 3 3 3 3 3 3 2 2 2 2 2 2 2 2 2 3 4 4 5 5 5 4 3 2 2 2 3 3 3 4 4 4 5 6 7 7
9 9 8 8 8 7 6 4 3 3 3 4 3 3 3 3 2 2 2 2 2 2 2 2 3 4 5 5 5 5 4 3 2 1 2 2 3 3 4 4 5 6 6 7 8
9 8 8 8 8 7 6 4 3 4 4 4 4 3 3 3 3 3 3 3 3 3 3 3 3 4 5 5 6 5 5 4 3 2 2 2 3 3 4 4 5 6 7 7 8
7 8 8 8 8 7 5 4 4 5 5 5 4 4 3 3 4 4 3 3 3 3 3 3 3 4 5 5 6 5 5 4 3 2 1 2 2 3 3 3 4 6 7 7 8
6 7 7 8 8 7 6 5 6 6 6 5 5 4 4 4 4 4 4 4 4 4 4 4 3 3 4 5 5 5 5 4 4 3 2 1 2 3 3 4 5 6 7 8 8
6 6 7 8 7 6 6 6 7 7 7 6 6 5 5 4 4 4 4 4 5 5 4 4 3 2 3 4 5 4 4 4 4 3 2 2 2 3 4 5 6 7 8 9 9
6 6 7 7 6 6 6 6 7 7 7 7 7 6 6 5 4 4 5 5 6 6 5 5 4 2 2 3 4 4 4 4 4 3 2 2 2 4 5 6 7 8 9 9 9
6 6 6 6 6 6 6 6 6 7 7 7 7 7 6 5 5 5 5 6 7 7 7 6 5 3 3 3 4 4 4 4 4 3 2 2 3 4 6 8 9 9 10 10 10
6 6 6 6 6 6 6 6 6 6 7 7 7 7 6 6 5 5 6 6 7 7 8 7 5 4 4 5 5 4 5 5 4 4 3 3 4 5 7 9 9 10 10 10 10
7 6 6 6 6 6 6 6 6 6 7 7 7 7 7 6 6 6 7 7 7 7 7 7 5 5 5 5 5 5 5 5 5 5 5 4 5 7 8 9 9 9 9 9 9
7 7 7 6 6 6 6 6 6 7 7 7 7 7 7 7 7 7 7 7 7 7 7 7 6 4 4 5 5 4 4 5 5 5 5 5 6 7 8 8 8 8 9 9 9